THOR ABLESTAR R/B, 118

Orbit data source: Space-Track

THOR ABLESTAR R/B, 118 is space debris in LEO originally from a launch on Thu, 29 Jun 1961 UTC launched from the Air Force Eastern Test Range (AFETR). Debris objects in space refer to the collection of defunct objects orbiting the Earth. Examples of debris include non-operational satellites, rocket bodies, and fragments generated from explosions, collisions, or faulty payload assembly.

Loading next visibility...
Identifier
118, 1961-015C
Orbit
LEO
Country
Flag of USUS
Related business
Manufacturer
Aerojet
Mission
Spacecraft
Bus & Motor
ABLESTAR, Unknown motor
Mass
~600 kg wet, 600 kg dry
Launch date (UTC)
1961-06-29 (65 years ago)
Launch vehicle
Unknown
Launch site
Air Force Eastern Test Range (AFETR)
Object type
Payload
Rocket body
Debris
Shape & HBR
Unknown
Radar Cross Section
Large (>1 m²)

Expand to show TLE details & history
Last TLE update: 13 hours ago

TLE from 13 hours ago
0 THOR ABLESTAR R/B
1   118U 61015C   26036.94916760  .00000228  00000-0  19336-3 0  9999
2   118  66.7641  27.9202 0082119 359.3453   0.7510 14.02684243297732
Epoch: 2026-02-05T22:46Z
TLE epoch observation values (Epoch: 2026-02-05T22:46:48.080Z)
Latitude
-0.00005°
Longitude
-89.87422°
Altitude
826.958 km
Speed
7.47 km/s
True Right ascension
01h 51m 40s
True Declination
0° 00' 00"
Sunlit
Object was in daylight at epoch
Visualization orbit readout
Latitude
Unknown
Longitude
Unknown
Altitude
Unknown
Speed
Unknown
Apparent Right ascension
Unknown
Apparent Declination
Unknown
Sunlit
N/A
Visualization observer readout
Local Sidereal Time
14:21:21
Azimuth
Unknown
Elevation
Unknown
Doppler factor
Unknown
Orbital elements
Apogee altitude
942.53 km
Perigee altitude
823.276 km
Semi-major axis
7,261.04 km
Eccentricity
0.00821
Inclination
66.7641°
RAAN
27.9202°
Arg. of periapsis
359.3453°
True anomaly
0.76346°
Mean anomaly
0.751°
Eccentric anomaly
0.75722°
Mean motion
3.50788 °/min
Orbital period
102.63 mins
BSTAR
0.00019336
Loading maneuver chart data...
Computing Atmospheric mass density...

Documentation

Showing up to 5 results
|